Regional Weather Roundup
Issued by NWS

Home | Current Version | Previous Version | Text Only | Print | Product List | Glossary On
Versions: 1 2 3 4 5 6 7 8 9 10 11 12 13 14 15 16 17 18 19 20 21 22 23 24 25 26 27 28 29 30 31 32 33 34 35 36 37 38 39 40 41 42 43 44 45 46 47 48 49 50
000
ASUS45 KSLC 301010
RWRUT

UTAH REGIONAL WEATHER ROUNDUP
NATIONAL WEATHER SERVICE SALT LAKE CITY UT
400 AM MDT SAT MAY 30 2015

UTZ001>011-023>025-301100-

NORTHERN UTAH

CITY           SKY/WX    TMP DP  RH WIND       PRES   REMARKS
BRIGHAM CITY   CLEAR     52  47  83 NW5       30.12S
HILL AFB       CLEAR     55  38  53 E17       30.13F
LOGAN          CLEAR     46  43  89 CALM      30.13F
OGDEN          CLEAR     54  41  61 S9        30.11F
PROVO AIRPORT  CLEAR     55  43  62 CALM      30.15S
SALT LAKE CITY PTCLDY    60  43  53 SE7       30.10F
VERNAL         CLEAR     50  40  68 W5        30.23F
WENDOVER       CLEAR     59  48  67 W3        30.09F
HEBER CITY     CLEAR     43  37  81 CALM      30.22S
WEST JORDAN    CLEAR     55  45  67 SW5       30.13F

$$

UTZ012>022-026-027-301100-

SOUTHERN/CENTRAL UTAH

CITY           SKY/WX    TMP DP  RH WIND       PRES   REMARKS
BLANDING       CLEAR     56  32  40 N8        30.28S
BRYCE CANYON   CLEAR     40  35  83 W9        30.32S WCI  34
CEDAR CITY     PTCLDY    51  44  77 SE3       30.17S
DELTA          PTCLDY    54  43  64 NE8       30.13S
HANKSVILLE     CLEAR     54  32  43 N5        30.17R
MILFORD        CLEAR     52  46  80 SW5       30.14S
MOAB/CYNLANDS  CLEAR     59  38  45 S8        30.14S
PRICE          CLEAR     51  37  58 CALM      30.22S
ST GEORGE      SUNNY     68  36  30 S5        30.04S
KANAB          PTCLDY    57  39  51 NW14      30.19S

$$

REGIONAL REPORTS     COLORADO/ARIZONA

CITY           SKY/WX    TMP DP  RH WIND       PRES   REMARKS
CRAIG, CO      CLEAR     38  35  89 SE3       30.30R
GRAND JUNCTION CLEAR     52  41  66 CALM      30.19S
RIFLE          CLEAR     45  38  76 CALM      30.27S
MONTROSE       CLEAR     48  37  65 SE9       30.26F
CORTEZ         CLEAR     39  32  76 CALM      30.24S
PAGE, AZ       CLEAR     66  43  43 CALM      30.13R
GRAND CANYON   CLEAR     46  37  71 CALM      30.26S
KINGMAN        PTCLDY    61  13  15 CALM      30.02S
FLAGSTAFF      CLEAR     41  35  79 CALM      30.28S

$$

REGIONAL REPORTS    NEVADA/IDAHO/WYOMING

CITY           SKY/WX    TMP DP  RH WIND       PRES   REMARKS
LAS VEGAS, NV  PTCLDY    80  24  12 SW7       29.87F
ELY            PTCLDY    50  42  74 VRB3      30.18F
ELKO           CLOUDY    59  44  57 NE6       30.09S
POCATELLO, ID  CLEAR     53  48  83 VRB3      30.10F
BURLEY         PTCLDY    56  45  66 E7        30.04F
EVANSTON, WY   CLEAR     48  38  68 SE6       30.26F
ROCK SPRINGS   CLEAR     45  38  76 S8        30.27F
KEMMERER       CLEAR     41  36  81 N10       30.28F

$$


USA.gov is the U.S. government's official web portal to all federal, state and local government web resources and services.